STARLINK-36421, 67464

Orbit data source: Space-Track

STARLINK-36421, 67464 is a payload satellite owned by SpaceX/Seattle (US) in LEO that was launched on Wed, 14 Jan 2026 UTC via an FALCON 9 launch vehicle from the Air Force Eastern Test Range (AFETR). Payload-class satellites include a variety of spacecraft equipped with specific instruments for various scientific and technological missions. These include communications satellites like Starlink; space stations such as the ISS; scientific satellites like the Hubble; Earth observation satellites from companies like Planet Labs, Umbra, and HawkEye 360; GPS; miniature CubeSats for education and research; and military/defense satellites.

Loading next visibility...
Identifier
67464, 2026-008V
Orbit
LEO
Country
Flag of USUS
Related business
Manufacturer
SpaceX/Seattle
Mission
Operational spacecraft
Bus & Motor
STARLINK V2MO, Unknown motor
Mass
575 kg wet, ~530 kg dry
Launch date (UTC)
2026-01-14 (2 months ago)
Launch vehicle
FALCON 9
Launch site
Air Force Eastern Test Range (AFETR)
Object type
Payload
Rocket body
Debris
Shape & HBR
Unknown shape, 17.7 m
Radar Cross Section
RCS unknown

Expand to show TLE details & history
Last TLE update: 19 hours ago

TLE from 19 hours ago
0 STARLINK-36421
1 67464U 26008V   26062.46197918  .00039409  00000-0  14327-2 0  9998
2 67464  42.9940 240.0576 0002065 302.1302  57.9349 15.27608422  8625
Epoch: 2026-03-03T11:05Z
TLE epoch observation values (Epoch: 2026-03-03T11:05:15.001Z)
Latitude
-0.00001°
Longitude
-87.49561°
Altitude
481.987 km
Speed
7.627 km/s
True Right ascension
16h 00m 13s
True Declination
0° 00' 00"
Sunlit
Object was in daylight at epoch
Visualization orbit readout
Latitude
Unknown
Longitude
Unknown
Altitude
Unknown
Speed
Unknown
Apparent Right ascension
Unknown
Apparent Declination
Unknown
Sunlit
N/A
Visualization observer readout
Local Sidereal Time
10:01:06
Azimuth
Unknown
Elevation
Unknown
Doppler factor
Unknown
Orbital elements
Apogee altitude
486.327 km
Perigee altitude
483.493 km
Semi-major axis
6,863.047 km
Eccentricity
0.00021
Inclination
42.994°
RAAN
240.0576°
Arg. of periapsis
302.1302°
True anomaly
57.95496°
Mean anomaly
57.9349°
Eccentric anomaly
57.94493°
Mean motion
3.8174 °/min
Orbital period
94.31 mins
BSTAR
0.0014327
Loading maneuver chart data...
Computing Atmospheric mass density...
Loading historical data...
Loading historical data...
Loading historical data...
Loading historical data...
Loading historical data...
Loading historical data...
Loading historical data...

Documentation

Showing up to 5 results
|